Location: Le Petit-Vavre
(46.5081°N, 1.5239°E)
Time: 15:26:29
(UTC+00:00)

USA 234 - Pass Details

Date: 03 March 2021
Orbit: 1102 x 1105 km, 123.0° (Epoch: 13 April)

Event Time Altitude Azimuth Distance (km) Brightness Sun altitude
Exits shadow 19:39:57 23° 58° (ENE) 2,173 4.4 -20.8°
Maximum altitude 19:44:21 73° 140° (SE) 1,149 3.1 -21.6°
Drops below altitude 10° 19:50:52 10° 225° (SW) 2,955 5.9 -22.6°
Sets 19:53:22 0° 227° (SW) 3,911 6.6 -23.1°
